Weather Service Report


090 
ASUS44 KSJT 081710
RWRSJT
WEST CENTRAL TEXAS REGIONAL WEATHER ROUNDUP
NATIONAL WEATHER SERVICE SAN ANGELO TX
1100 AM CST THU DEC 08 2016

NOTE: "FAIR" INDICATES FEW OR NO CLOUDS BELOW 12,000 FEET WITH NO
SIGNIFICANT WEATHER AND/OR OBSTRUCTIONS TO VISIBILITY.

TXZ049-054-064>066-071>073-076>078-098-099-113-114-127-128-139-140-
154-155-168>170-081800
...LOCATIONS ACROSS WEST CENTRAL TEXAS...
  
CITY           SKY/WX    TMP DP  RH WIND       PRES   REMARKS
SAN ANGELO     CLOUDY    33  26  75 NE18G24   30.61R WCI  22          
ABILENE        CLOUDY    28  21  75 N15       30.66R WCI  16          
DYESS AFB      FLURRIES  28  20  70 N18       30.65R WCI  15          
JUNCTION       PTSUNNY   36  26  67 NE20G29   30.55R WCI  25          
SWEETWATER     CLOUDY    26  24  92 N9G18     30.65S WCI  17          
BROWNWOOD      LGT RAIN  32  23  69 N15G21    30.63F WCI  22          
COLEMAN        LGT SNOW  30  25  80 N21       30.62S WCI  17          
SONORA         PTSUNNY   34  23  64 NE21G31   30.58S WCI  22          
OZONA          PTSUNNY   32  25  74 NE23G29   30.58S WCI  19          
BRADY          NOT AVBL                                               
$$

TEXAS PANHANDLE/OKLAHOMA PANHANDLE
  
CITY           SKY/WX    TMP DP  RH WIND       PRES   REMARKS
AMARILLO       CLOUDY    20   7  57 N8        30.61S WCI  10          
BORGER         SUNNY     21   4  47 NE10      30.66R WCI  10          
CANADIAN       SUNNY     23   6  49 N6        30.70S WCI  15          
DALHART        MOSUNNY   19   9  65 E6        30.60R WCI  11          
DUMAS          MOSUNNY   18   3  52 N8        30.61R WCI   8          
GUYMON         NOT AVBL                                               
HEREFORD       CLOUDY    20  10  63 NE9       30.60F WCI  10          
PAMPA          MOSUNNY   24  10  54 NE9       30.63F WCI  14          
PERRYTON       CLOUDY    20   7  55 N7        30.66S WCI  12          
$$

SOUTHERN PANHANDLE/SOUTH PLAINS/ROLLING PLAINS
  
CITY           SKY/WX    TMP DP  RH WIND       PRES   REMARKS
LUBBOCK        CLOUDY    26  16  65 NE10      30.60R WCI  16          
SNYDER         CLOUDY    26  20  78 NE14G20   30.63F WCI  14          
CHILDRESS      CLOUDY    26   9  48 NE10      30.72R WCI  16          
SEMINOLE       CLOUDY    27  20  73 NE9       30.60R WCI  18          
$$

PERMIAN BASIN
  
CITY           SKY/WX    TMP DP  RH WIND       PRES   REMARKS
MIDLAND        LGT SNOW  29  22  75 NE18      30.59R WCI  16          
ODESSA         LGT SNOW  29  21  72 E18       30.59R WCI  16          
WINK           CLOUDY    31  24  75 NE12      30.59R WCI  22          
$$

FAR WEST/SOUTHWEST MOUNTAINS/TRANS PECOS
  
CITY           SKY/WX    TMP DP  RH WIND       PRES   REMARKS
ALPINE         CLOUDY    26  25  96 NE10      30.55R VSB 3/4 WCI  15  
DRYDEN           N/A     36  28  73 N17       30.54R WCI  26          
EL PASO        PTSUNNY   37  23  56 E13       30.42R WCI  29          
FORT STOCKTON  CLOUDY    28  25  88 NE13      30.57S WCI  17          
GUADALUPE PASS CLOUDY    21  21 100 NE35G43   30.42R BLWGSNOWWCI   2  
MARFA          CLOUDY    27  24  89 NE14      30.46R WCI  16          
PECOS          CLOUDY    30  25  82 NE10      30.62R WCI  21          
$$

DALLAS/FORT WORTH METROPLEX
  
CITY           SKY/WX    TMP DP  RH WIND       PRES   REMARKS
DFW AIRPORT    CLOUDY    33  18  53 N17       30.66R WCI  22          
FTW MEACHAM    CLOUDY    33  16  49 N17       30.68R WCI  22          
DAL-EXECUTIVE  CLOUDY    36  19  50 N18       30.65R WCI  26          
GRAND PRAIRIE  SUNNY     34  19  55 N12G21    30.68R WCI  25          
ADDISON        CLOUDY    34  23  64 N14G23    30.67S WCI  24          
MESQUITE       CLOUDY    34  19  55 N17       30.66S WCI  23          
LANCASTER      CLOUDY    36  20  52 N18       30.66F WCI  26          
$$

NORTH CENTRAL TEXAS
  
CITY           SKY/WX    TMP DP  RH WIND       PRES   REMARKS
SHRMAN/DENISON CLOUDY    32  18  55 N16G24    30.69R WCI  21          
GAINESVILLE    CLOUDY    31  13  48 NE13G18   30.70S WCI  21          
BRIDGEPORT     CLOUDY    31  20  63 N8G17     30.72R WCI  24          
DENTON         CLOUDY    32  16  51 N16       30.69R WCI  21          
WAXAHACHIE     CLOUDY    35  22  58 N15G24    30.65S WCI  25          
GRANBURY       CLOUDY    34  19  55 N17       30.69R WCI  23          
$$

WESTERN NORTH TEXAS
  
CITY           SKY/WX    TMP DP  RH WIND       PRES   REMARKS
WICHITA FALLS  CLOUDY    29  11  47 N17       30.72R WCI  17          
VERNON         CLOUDY    29  11  46 N14       30.74S WCI  19          
BRECKENRIDGE   CLOUDY   N/A N/A N/A N10G18    30.69R                  
COMANCHE       CLOUDY    31  25  78 N17G24    30.63S WCI  20          
$$

CENTRAL AND SOUTH CENTRAL TEXAS
  
CITY           SKY/WX    TMP DP  RH WIND       PRES   REMARKS
AUSTIN/BERGSTM CLOUDY    43  30  60 N26G38    30.51R WCI  33          
WACO           CLOUDY    37  27  67 N18G30    30.61R WCI  27          
HILLSBORO      CLOUDY    36  26  65 N21G28    30.61S WCI  25          
TEMPLE         CLOUDY    38  27  64 MISG      30.57F                  
KILLEEN-GRAY   CLOUDY    36  26  67 NE17G31   30.56R WCI  26          
FORT HOOD      CLOUDY    37  27  68 N22       30.55S WCI  26          
GEORGETOWN     CLOUDY    39  27  60 N20G28    30.56R WCI  30          
LAGO VISTA     CLOUDY    38  29  69 NE16G29   30.54R WCI  30          
SAN MARCOS     MOSUNNY   43  30  61 N29G40    30.50R WCI  32          
NEW BRAUNFELS  CLOUDY    47  29  49 N30G38    30.46R WCI  38          
RANDOLPH AFB   PTSUNNY   45  30  55 N18       30.46R WCI  37          
SAN ANTONIO    PTSUNNY   44  28  53 N22G35    30.46R WCI  35          
STINSON        CLOUDY    46  30  53 N18G25    30.45R WCI  39          
PLEASANTON     NOT AVBL                                               
LA GRANGE      CLOUDY    44  36  73 N12G24    30.46F WCI  38          
GIDDINGS       CLOUDY    42  32  69 N13G22    30.53R WCI  35          
$$

EAST TEXAS
  
CITY           SKY/WX    TMP DP  RH WIND       PRES   REMARKS
PARIS          CLOUDY    34  18  51 N16       30.64R WCI  23          
CLARKSVILLE    NOT AVBL                                               
TYLER          CLOUDY    37  28  70 N12G18    30.58R WCI  29          
LONGVIEW       CLOUDY    41  33  73 N12       30.57R WCI  34          
PALESTINE      CLOUDY    40  32  73 N14       30.58S WCI  32          
NACOGDOCHES    CLOUDY    43  30  61 N13G22    30.51F WCI  36          
$$

TEXAS HILL COUNTRY AND EDWARDS PLATEAU
  
CITY           SKY/WX    TMP DP  RH WIND       PRES   REMARKS
LLANO          CLOUDY   N/A N/A N/A N16G23    30.61F                  
HORSESHOE BAY  PTSUNNY   40  28  63 NE12G22   30.56S WCI  32          
KERRVILLE      CLOUDY    38  28  67 N25G32    30.47F WCI  26          
FREDERICKSBRG  CLOUDY    37  25  63 N22G31    30.50F WCI  25          
ROCKSPRINGS    CLOUDY    36  28  75 NE16G28   30.47S WCI  26          
HONDO          CLOUDY    45  29  53 NE22G29   30.48R WCI  37          
UVALDE         CLOUDY    43  33  65 NE13G22   30.50R WCI  37          
DEL RIO        CLOUDY    43  31  62 N9G18     30.53R WCI  38          
$$

SOUTHEAST TEXAS
  
CITY           SKY/WX    TMP DP  RH WIND       PRES   REMARKS
COLLEGE STN    CLOUDY    43  35  73 N21G28    30.51S WCI  34          
CALDWELL       NOT AVBL                                               
CROCKETT       CLOUDY    41  32  70 NE16      30.55F WCI  33          
BRENHAM        CLOUDY    46  39  77 N22G29    30.48S WCI  38          
HUNTSVILLE     CLOUDY    43  32  65 VRB7      30.50R WCI  39          
CONROE         CLOUDY    44  39  82 N15G28    30.47R WCI  37          
HOUSTON BUSH   CLOUDY    47  40  76 N22       30.44R WCI  39          
HOUSTON HOBBY  CLOUDY    48  42  80 N23       30.41S                  
PERLAND        CLOUDY    49  42  77 N18G29    30.41R                  
WHARTON        CLOUDY    48  41  77 N17G29    30.42R                  
$$

THE UPPER TEXAS COAST
  
CITY           SKY/WX    TMP DP  RH WIND       PRES   REMARKS
ORANGE         CLOUDY    46  46  99 NE14G21   30.42S                  
PORT ARTHUR    CLOUDY    47  43  86 N17G28    30.39R                  
GALVESTON      CLOUDY    51  48  89 N25G36    30.38R                  
ANGLETON       CLOUDY    50  44  80 MISG      30.38R                  
BAY CITY       CLOUDY    50  46  85 N17G26    30.38S                  
$$

TEXAS COASTAL BEND, RIO GRANDE PLAINS DEEP SOUTH TEXAS
  
CITY           SKY/WX    TMP DP  RH WIND       PRES   REMARKS
VICTORIA       CLOUDY    46  40  79 N26G35    30.40S WCI  37          
BEEVILLE       CLOUDY    46  40  78 N21G31    30.39S WCI  38          
ROCKPORT         N/A    N/A N/A N/A MISG      30.35R                  
PORT ARANSAS   CLOUDY    51  47  85 N30G37    30.34R                  
PORT LAVACA    CLOUDY    48  46  91 N20G37    30.38R                  
CORPUS CHRISTI LGT RAIN  50  46  86 N24G31    30.36R                  
KINGSVILLE NAS LGT RAIN  49  48  97 N21G35      N/A  FOG              
COTULLA        CLOUDY    49  38  65 N13       30.47R                  
LAREDO         LGT RAIN  49  44  83 N16G24    30.44R                  
BROWNSVILLE    HVY RAIN  63  62  97 NW13      30.24R FOG              
PORT ISABEL    LGT RAIN  64  62  93 N23G30    30.22R FOG              
HEBBRONVILLE   LGT RAIN  46  44  93 N16G23    30.38R WCI  40          
MCALLEN        LGT RAIN  56  52  86 N16       30.33R FOG              
WESLACO        DRIZZLE   55  52  88 N17       30.30R                  
FALFURRIAS     CLOUDY    51  48  90 N15G23    30.35R                  
EDINBURG       RAIN      56  51  83 N17       30.33R                  
$$
  

Return to Home page


Western Regional Climate Center, wrcc@dri.edu